Regional Weather Roundup
Issued by NWS

Home | Current Version | Previous Version | Text Only | Print | Product List | Glossary Off
Versions: 1 2 3 4 5 6 7 8 9 10 11 12 13 14 15 16 17 18 19 20 21 22 23 24 25 26 27 28 29 30 31 32 33 34 35 36 37 38 39 40 41 42 43 44 45 46 47 48 49 50

000
ASUS43 KFSD 200210
RWRSD

WEATHER ROUNDUP FOR SOUTH DAKOTA
NATIONAL WEATHER SERVICE SIOUX FALLS SD
900 PM CDT TUE SEP 19 2017

NOTE: "FAIR" INDICATES FEW OR NO CLOUDS BELOW 12,000 FEET WITH NO
SIGNIFICANT WEATHER AND/OR OBSTRUCTIONS TO VISIBILITY.


SDZ001>005-009-010-012>017-200300-
NORTHWEST AND NORTH CENTRAL SOUTH DAKOTA

CITY           SKY/WX    TMP DP  RH WIND       PRES   REMARKS
BUFFALO          N/A     48  44  86 W14       29.64R
MOBRIDGE       PTCLDY    61  53  75 NW22G31   29.55R
$$

SDZ012>016-024>037-041>051-057-063-072>074-200300-
SOUTHWEST AND SOUTH CENTRAL SOUTH DAKOTA

CITY           SKY/WX    TMP DP  RH WIND       PRES   REMARKS
RAPID CTY ARPT PTCLDY    48  43  81 N16G25    29.73R
PIERRE         CLEAR     68  47  46 NW30G40   29.58R
CUSTER         CLOUDY    47  38  71 W13       29.76R
ELLSWORTH AFB  CLOUDY    50  45  84 N18       29.73R
PHILIP         CLOUDY    58  56  93 NW14      29.65R
SPEARFISH      CLOUDY    48  39  71 W16G28    29.73F
WINNER         FAIR      68  49  50 NW25G31   29.55R
$$

SDZ004>011-016>023-039-040-200300-
NORTHEAST SOUTH DAKOTA

CITY           SKY/WX    TMP DP  RH WIND       PRES   REMARKS
ABERDEEN       CLOUDY    71  66  84 VRB7      29.43R THUNDER
WATERTOWN      CLOUDY    72  69  90 SE17G26   29.44F
BROOKINGS      CLOUDY    75  68  78 SE20G31   29.48F
SISSETON         N/A     75  68  78 SE17      29.42F
$$

SDZ017-020-022-023-036>040-048>070-200300-
SOUTHEAST SOUTH DAKOTA

CITY           SKY/WX    TMP DP  RH WIND       PRES   REMARKS
SIOUX FALLS    CLOUDY    78  68  71 SE21G30   29.50F
HURON          HVY RAIN  73  69  87 W25G44    29.46R FOG
CHAMBERLAIN    CLOUDY    70  52  52 NW24G36   29.49F
MITCHELL       PTCLDY    79  69  71 SE13      29.43F
YANKTON        CLOUDY    79  69  71 SE14      29.48F
$$

ABBREVIATIONS USED IN REMARKS
   TC - TEMPERATURE IN CELSIUS
  WCI - WIND CHILL INDEX
   HX - HEAT INDEX
  VSB - VISIBILITY





USA.gov is the U.S. government's official web portal to all federal, state and local government web resources and services.